Find Starlink 37013

NORAD ID: 68162 Int'l Des: 2026-049 Owner: SPXS Country: US Constellation: starlink operational
LEOCIRCULARRETROGRADE

当前视图

正在加载3D地球...

About Starlink 37013

Starlink 37013 (NORAD 68162) is a starlink constellation satellite (v2 mini) launched Mar 13, 2026 by SPXS of US. It operates in LEO, CIRCULAR, RETROGRADE orbit with a mass of 575.00 kg.

关于 Starlink 37013

正在加载描述...

即将过境

Passes for default location (London). Set your location on the main map for personalized predictions.

高度历史

Loading altitude history...

两行轨道根数

1 68162U 26049W 26164.79123880 .00026736 00000-0 82755-3 0 9995
2 68162 97.2833 186.1485 0001462 90.2397 269.9013 15.33444502 14379
Epoch: Jun 13, 2026 • Age: 11 hours

当前状态

高度 490.5 km
速度 7.62 km/s
星下点 -62.83°S, 146.75°W
发射日期 Mar 13, 2026
运行时间 0.2 years
类型 internet

技术详情

分类 Payload
质量 575.00 kg
干质量 530.00 kg
总质量 575.00 kg
长度 0.30 m
直径 4.10 m
跨度 29.00 m
形状 Box + pan
制造商 SPXS
平台类型 Starlink V2MO
阶段状态 In Orbit
所有者/国家 SPXS/US

Most Searched